Vertical_Velocity
1 2 -2 3 0 2 1 1 -1 0 1 -1 -1 -1 -2 -1 2 -3 -0 -2 -2 -3 -3 -2 -2 -3 -5 -3 1 -2 -2 -1 1 -2 -4 -1 -2 -3 -2 0 -2 -0 -2 -1 0 -3 -1 -1 -2 3 1 -1 0 1
2 2 -1 2 3 1 0 1 -1 1 0 -0 -1 0 -1 -1 0 -1 -1 -2 -2 -4 -2 -3 0 -3 -2 -4 -3 1 -1 1 3 -0 -1 -3 -3 -1 -0 -1 1 -2 -1 -2 -3 1 -1 0 -0 -0 1 -0 -1 1
0 2 2 2 2 0 0 1 1 -0 -1 0 -0 1 -1 -1 1 -1 0 -1 -2 -3 -1 -2 -2 -2 -1 -1 -2 -5 -2 -2 -4 -4 -2 -2 -2 -1 -2 0 0 -3 -3 -4 -0 1 -0 -1 -1 0 1 -1 -1 -1
0 1 -0 1 1 0 0 2 0 1 1 -0 0 2 0 -0 -0 1 -0 -0 -1 -2 -1 -1 -1 -0 0 -1 -1 1 -1 -0 -1 -1 -1 -1 1 1 -0 -1 -2 -2 0 -1 -1 -1 0 -1 -0 2 1 0 -0 -1
-1 -0 -0 1 2 -2 0 0 -1 0 -2 1 1 3 2 -1 -1 2 -1 -2 1 -3 -1 -2 -3 -1 1 1 -0 0 -0 1 1 -1 -1 1 -1 -1 -2 -2 -2 -1 -0 -1 -0 -0 -0 1 0 -0 1 1 0 -2
-2 -2 -1 -1 0 -0 -0 1 1 2 2 1 1 2 1 0 -2 2 -1 -0 -0 -0 -1 -2 -2 -1 -0 -1 1 0 0 0 0 -0 -0 -0 -1 1 -1 -2 -1 -1 -2 -1 -1 -0 0 -1 -0 -0 -1 -1 -0 -2
-0 -0 -0 -1 -1 -1 -1 1 2 0 3 2 3 2 1 -0 -1 1 2 1 -1 -1 1 -2 -1 -1 -1 -2 -1 -0 1 0 0 0 -1 -0 -1 0 -0 -0 0 -1 -1 -0 -1 0 1 1 -0 -0 0 -1 0 0
2 3 3 2 2 1 2 5 5 6 6 0 5 2 1 -1 -1 -2 -1 2 -0 0 -0 -3 3 -1 -2 -1 -1 -1 -1 -1 -1 -0 -2 -1 -0 -0 0 -4 -2 -1 1 1 0 0 3 3 0 0 2 0 -1 -1
1 1 1 1 1 3 2 2 6 6 6 9 6 -0 -2 -3 2 4 -1 1 -0 -2 -4 3 0 -3 -1 -1 -2 -2 -1 -1 1 -1 -2 -3 -1 -3 3 -2 -1 1 -0 -1 2 5 1 4 8 -0 -1 1 -1 -2
0 1 2 3 3 4 2 3 3 5 4 5 -1 -3 -5 3 2 2 1 -2 -2 -2 -3 2 1 0 1 -1 -2 -1 -1 -3 -1 -1 -1 -2 1 2 3 -1 0 1 1 -0 0 1 -0 -1 -1 -1 -1 -1 0 0
2 3 2 4 5 4 2 3 3 3 -1 -5 -3 -0 5 2 3 0 -3 -5 -3 -2 0 6 2 2 -2 1 -1 -1 -1 -2 -2 -1 -3 2 1 -2 -4 -2 0 0 -1 1 -0 -2 -2 -1 -4 -3 -3 -2 -3 -3
3 2 3 4 2 1 0 -1 0 -1 7 6 10 10 13 3 3 -4 -9 -9 -2 -1 -0 5 -0 -2 -2 -1 1 0 -1 -1 -0 -0 -1 3 -4 -2 -2 -1 -1 -2 -1 0 -1 -3 -2 -1 -1 -2 -2 -1 -1 0
3 3 3 1 1 0 -0 0 9 3 3 4 3 9 3 -1 -5 -16 -5 -5 -4 5 11 6 1 0 -0 -1 0 -2 -0 0 1 2 2 -3 -4 -3 -1 -1 -1 -0 0 -0 -1 -0 -1 -1 -2 -1 -2 -3 -3 -2
2 1 0 2 1 1 1 6 5 1 -1 8 4 1 -1 -13 -9 -5 2 7 3 4 8 3 0 -1 -0 -0 -1 -1 0 3 5 5 -1 -2 0 -1 -1 -0 0 -2 -3 -2 -2 -2 -1 -0 -0 -1 -2 -2 -2 -1
1 1 -1 2 -0 1 3 4 8 5 13 9 -2 -10 -0 1 -0 0 3 2 3 1 -0 -1 1 1 -3 -2 2 3 -0 1 -0 -0 -1 -1 -2 -2 -1 0 1 2 1 -0 -0 -1 -1 -1 0 1 1 -0 -1 0
-2 1 2 0 5 5 6 6 6 5 13 12 0 -7 -5 -6 -2 -4 -2 -0 -3 -3 -4 -2 -2 -3 0 -1 1 2 1 2 2 0 -1 0 0 1 0 -1 -1 -1 -0 0 0 -0 -0 -1 -1 -1 -0 1 -0 -2
-0 2 5 0 4 9 8 10 10 7 -5 5 -4 2 7 3 0 -2 -2 2 -0 -3 -1 -1 -0 -1 -0 -0 -0 1 1 0 2 -1 -1 -1 -0 -1 -0 0 1 1 1 -0 -1 -2 -2 -3 -4 -5 -4 -5 -4 -4
6 3 1 5 1 -4 2 2 3 -5 6 1 0 1 -4 -1 2 4 0 -7 -1 1 0 -0 1 -1 0 4 2 0 1 0 -1 0 0 -1 1 1 2 2 -0 -2 -3 -4 -4 -4 -5 -4 -3 -3 -2 -2 -1 -3
7 6 -2 -1 4 4 -2 1 2 2 2 2 3 -3 -2 -3 0 1 -2 -1 1 -1 -2 -3 -2 0 4 2 1 -0 -1 0 -0 -1 0 1 1 1 0 -1 -0 -3 -3 -2 -2 -2 -1 -1 -1 -1 -1 -1 -2 0
2 1 2 1 -0 1 -5 2 2 1 -2 -2 -1 2 3 1 -1 -3 -2 1 -0 -2 -4 -1 1 1 1 -0 -0 1 -0 -0 -0 1 1 1 1 -0 -4 -5 -3 -3 -2 -2 -1 -2 -3 -2 -3 -3 -4 -5 -4 -3
-1 2 -2 1 2 1 -1 -1 -0 -3 -0 2 2 1 -1 -3 -2 -1 -2 -3 -2 2 2 1 -0 -0 -0 1 1 -0 -0 -0 -0 0 1 -2 -2 -4 -2 -1 -2 -2 -2 -4 -3 -3 -4 -4 -4 -3 -4 -3 -2 -2
1 -0 3 1 1 1 3 1 2 3 3 2 1 2 1 -0 -1 -2 -3 -2 -1 -1 -1 -0 -0 -1 1 1 -0 -1 -0 0 2 0 -2 -1 -2 -1 -1 -2 -2 -2 -3 -3 -2 -3 -3 -4 -3 -3 -2 -1 -0 -0
1 -1 0 -1 -0 1 -0 -1 0 1 1 0 -1 -1 -3 -3 -1 -1 -1 -0 -1 -0 -0 -1 -1 1 -0 -1 -0 -0 1 1 -1 -2 -2 -1 -1 -1 -1 -2 -2 -2 -1 -2 -1 -3 -2 -2 -3 -2 -1 -0 0 1
-0 -0 -0 1 1 1 2 1 -0 -0 -0 0 -1 -2 -0 0 0 0 0 0 -1 -1 -1 -1 -1 -1 -1 -0 1 1 -1 -1 -1 -2 -0 0 -1 -1 -2 -2 -2 -2 -1 -1 -2 -2 -2 -2 -2 -2 -1 -0 1 1
3 0 2 0 0 -3 0 -2 -1 -0 2 1 1 2 2 0 0 -0 -1 -2 -1 -1 -2 -1 -0 1 0 0 -1 -1 1 0 -0 1 1 -1 -1 -1 -1 -1 -0 -1 -1 -2 -2 -2 -2 -2 -2 -1 -0 0 -0 0
1 1 2 0 0 1 1 -2 -2 -1 0 -0 -1 -1 -1 -1 -2 -1 -1 -2 -2 -2 -2 -1 -0 -0 -0 -0 0 1 -1 -1 0 -0 -1 -0 -0 0 -0 0 -0 -2 -0 -1 -2 -2 -2 -2 -2 -1 -1 -1 -1 -1
-0 -0 1 0 1 0 0 1 1 1 1 -0 -0 -1 -1 0 0 -1 -2 -2 -1 -0 0 0 -1 -1 -0 0 -0 -1 -1 -0 0 -0 0 -0 -0 -1 0 -1 -1 -1 -1 -2 -2 -2 -2 -1 -1 -0 -0 -1 -1 -1
1 -0 0 0 0 1 1 0 0 0 0 0 0 0 0 1 0 -1 -1 -0 0 -0 -0 -0 -0 -0 0 0 1 0 -1 -0 0 1 1 0 -1 -0 1 0 -0 -0 -1 -1 -1 -1 -2 -2 -2 -1 -1 -1 -1 -1
-1 -1 0 -1 -0 1 0 -1 -0 -0 -0 0 -0 -1 -1 -0 -1 -1 -0 0 -1 -0 -0 -1 -0 1 1 -0 -1 -0 -0 1 1 1 2 1 0 2 -0 -0 -1 -2 -2 -1 -1 -1 -1 -1 -1 -1 -1 -1 -0 -0
-1 -0 -1 -1 -1 -1 -1 -0 0 0 -0 -1 -1 -1 -1 -1 0 0 -1 -0 1 1 1 1 1 1 -0 0 1 0 1 1 1 2 2 0 3 1 0 -0 -1 -1 -1 -1 -2 -2 -2 -1 -1 -1 -1 -1 -1 -1
-1 -1 -0 -1 -1 -2 -1 0 -0 -1 -1 -1 -1 -1 -0 -1 -1 -1 -1 -0 -0 -0 0 1 1 1 1 1 1 2 2 2 1 2 0 1 2 1 1 0 -1 -1 -1 -1 -1 -2 -1 -1 -1 -1 -1 -1 -0 0
-1 -1 -0 0 -1 -1 -0 -1 -1 -0 -0 -0 -0 -1 -1 -0 1 1 0 -0 -0 1 2 2 1 0 1 2 2 2 2 2 2 2 3 3 2 2 1 -0 -0 0 -0 -0 -0 -1 -1 -0 -0 -1 -0 -1 -1 -1
-0 -1 -0 -1 -0 1 -1 0 0 0 0 0 -0 -0 1 1 0 -1 1 0 1 1 1 1 2 2 2 2 2 2 2 1 1 3 2 2 2 2 1 0 1 0 -0 -1 -1 -1 -1 -1 -1 -0 -0 -1 -1 -1
Height
5443 5450 5456 5463 5469 5475 5480 5485 5490 5495 5499 5502 5506 5509 5511 5514 5515 5515 5515 5514 5515 5515 5514 5513 5513 5514 5515 5517 5518 5521 5524 5524 5526 5528 5531 5532 5534 5535 5536 5538 5539 5541 5543 5545 5548 5550 5554 5553 5555 5558 5560 5560 5562 5563
5431 5438 5445 5452 5459 5465 5471 5477 5482 5487 5492 5495 5499 5502 5505 5508 5509 5510 5510 5510 5511 5512 5512 5511 5510 5510 5512 5513 5515 5517 5520 5522 5523 5526 5528 5529 5531 5533 5535 5536 5537 5540 5541 5543 5546 5547 5547 5549 5551 5552 5554 5555 5557 5558
5418 5426 5433 5441 5448 5455 5462 5468 5474 5479 5484 5488 5492 5495 5498 5501 5503 5505 5506 5506 5507 5508 5509 5509 5508 5508 5508 5509 5511 5514 5516 5518 5521 5523 5525 5526 5528 5530 5531 5533 5534 5536 5538 5539 5542 5543 5544 5545 5546 5547 5548 5550 5551 5553
5406 5414 5421 5429 5437 5444 5452 5458 5464 5470 5475 5480 5485 5489 5492 5495 5498 5499 5501 5502 5503 5505 5506 5507 5506 5506 5506 5507 5508 5510 5512 5513 5516 5519 5521 5523 5525 5527 5529 5530 5532 5534 5535 5536 5538 5539 5540 5541 5542 5543 5544 5545 5545 5546
5393 5401 5410 5418 5426 5434 5442 5448 5455 5462 5468 5473 5478 5482 5486 5489 5492 5494 5496 5497 5500 5503 5504 5505 5505 5505 5505 5505 5506 5507 5509 5511 5513 5516 5518 5520 5522 5524 5525 5527 5529 5530 5532 5533 5534 5535 5536 5537 5538 5539 5540 5540 5540 5541
5380 5389 5398 5407 5415 5423 5432 5439 5447 5453 5460 5465 5470 5475 5479 5483 5486 5489 5492 5494 5496 5498 5500 5502 5504 5503 5504 5504 5505 5505 5506 5507 5509 5511 5514 5516 5518 5521 5523 5524 5525 5526 5528 5529 5530 5530 5531 5532 5533 5534 5535 5535 5536 5536
5369 5378 5386 5395 5403 5411 5420 5428 5436 5444 5451 5457 5463 5468 5473 5477 5481 5485 5489 5490 5492 5494 5497 5499 5501 5501 5502 5502 5503 5504 5504 5505 5507 5509 5510 5513 5516 5518 5520 5521 5522 5523 5524 5524 5525 5526 5527 5528 5528 5529 5529 5529 5530 5530
5358 5367 5375 5383 5391 5399 5407 5415 5423 5432 5441 5449 5456 5462 5467 5472 5475 5479 5483 5486 5488 5491 5493 5496 5498 5499 5499 5500 5501 5502 5503 5503 5504 5506 5508 5510 5512 5514 5517 5518 5519 5520 5521 5522 5522 5522 5523 5524 5524 5524 5525 5525 5525 5525
5350 5359 5367 5375 5383 5391 5397 5404 5412 5422 5431 5440 5448 5455 5461 5465 5470 5476 5479 5481 5484 5487 5489 5493 5495 5496 5498 5498 5499 5500 5500 5501 5502 5502 5503 5504 5506 5509 5513 5515 5516 5517 5517 5518 5518 5519 5519 5519 5519 5520 5520 5520 5520 5520
5343 5351 5360 5368 5376 5383 5390 5396 5405 5415 5425 5433 5440 5449 5455 5460 5466 5471 5474 5476 5479 5481 5485 5490 5492 5494 5496 5496 5496 5497 5497 5496 5497 5497 5497 5500 5502 5504 5507 5511 5512 5513 5513 5513 5513 5514 5514 5514 5514 5514 5514 5513 5512 5511
5337 5345 5353 5361 5369 5377 5384 5391 5401 5410 5420 5429 5438 5444 5451 5456 5462 5465 5469 5472 5475 5478 5483 5486 5488 5490 5492 5493 5493 5493 5492 5492 5492 5494 5495 5498 5500 5501 5504 5507 5509 5509 5509 5509 5509 5509 5509 5509 5508 5508 5507 5505 5504 5502
5331 5339 5347 5356 5365 5372 5380 5390 5399 5409 5421 5429 5436 5441 5448 5452 5457 5460 5464 5467 5471 5475 5480 5483 5485 5486 5488 5489 5490 5490 5489 5489 5489 5491 5494 5497 5499 5501 5503 5504 5505 5504 5504 5503 5503 5503 5502 5501 5500 5499 5497 5494 5491 5489
5327 5335 5344 5354 5362 5371 5381 5390 5400 5409 5417 5425 5431 5437 5442 5446 5450 5454 5458 5464 5469 5474 5477 5478 5480 5483 5485 5486 5487 5488 5488 5488 5489 5491 5492 5495 5498 5499 5499 5499 5500 5499 5499 5498 5497 5496 5494 5493 5491 5489 5487 5484 5481 5477
5325 5334 5344 5353 5363 5372 5381 5390 5400 5407 5415 5422 5427 5432 5436 5440 5446 5452 5458 5462 5466 5470 5472 5474 5477 5480 5482 5484 5485 5487 5488 5488 5490 5491 5493 5494 5496 5496 5496 5496 5495 5495 5494 5493 5492 5490 5488 5486 5483 5480 5476 5472 5468 5463
5327 5337 5347 5356 5365 5374 5383 5392 5400 5407 5413 5419 5423 5428 5434 5440 5446 5451 5454 5458 5462 5464 5467 5471 5475 5478 5480 5482 5484 5486 5488 5489 5490 5492 5492 5493 5493 5493 5492 5492 5491 5491 5490 5488 5486 5484 5481 5477 5473 5469 5465 5460 5455 5449
5333 5342 5351 5360 5369 5377 5385 5392 5399 5406 5412 5417 5421 5427 5432 5438 5443 5448 5451 5455 5458 5461 5466 5469 5472 5476 5478 5480 5483 5485 5487 5489 5490 5490 5490 5490 5490 5490 5490 5489 5488 5486 5484 5482 5479 5476 5472 5469 5464 5459 5454 5447 5439 5432
5339 5348 5356 5364 5372 5380 5386 5393 5399 5405 5411 5415 5421 5425 5430 5436 5441 5445 5449 5453 5457 5461 5465 5468 5471 5475 5478 5480 5482 5484 5486 5487 5488 5488 5489 5489 5489 5488 5487 5486 5484 5481 5478 5475 5471 5468 5463 5459 5453 5446 5439 5431 5422 5413
5347 5354 5361 5368 5374 5381 5386 5391 5397 5402 5408 5416 5421 5426 5430 5435 5439 5443 5447 5452 5456 5460 5463 5467 5471 5475 5477 5480 5482 5482 5484 5485 5487 5487 5487 5487 5487 5485 5484 5482 5479 5476 5472 5468 5464 5459 5453 5447 5440 5432 5423 5414 5405 5396
5353 5360 5366 5372 5379 5385 5390 5396 5401 5405 5411 5416 5422 5426 5430 5434 5438 5443 5447 5451 5455 5459 5463 5467 5471 5474 5477 5478 5480 5482 5483 5485 5485 5486 5486 5485 5484 5482 5480 5478 5474 5471 5466 5460 5455 5449 5442 5435 5428 5418 5409 5400 5390 5380
5360 5366 5372 5377 5384 5389 5394 5399 5404 5409 5413 5418 5422 5426 5430 5435 5439 5442 5447 5451 5455 5459 5463 5467 5470 5473 5474 5477 5479 5481 5482 5483 5484 5484 5484 5483 5481 5479 5476 5472 5467 5462 5456 5450 5443 5437 5430 5422 5413 5403 5393 5383 5373 5363
5367 5373 5378 5383 5388 5393 5398 5402 5407 5411 5415 5419 5422 5426 5430 5434 5438 5442 5447 5451 5455 5460 5464 5467 5469 5471 5474 5476 5478 5480 5481 5482 5482 5482 5481 5480 5477 5474 5469 5464 5459 5453 5447 5440 5433 5425 5417 5408 5399 5389 5379 5368 5358 5350
5374 5379 5384 5388 5392 5396 5400 5405 5409 5413 5417 5420 5423 5427 5431 5436 5440 5444 5449 5453 5456 5460 5462 5465 5468 5471 5474 5476 5477 5478 5479 5480 5479 5479 5477 5475 5471 5466 5462 5457 5451 5445 5437 5430 5422 5414 5406 5396 5387 5377 5366 5356 5347 5340
5381 5385 5388 5392 5395 5399 5404 5406 5410 5414 5418 5422 5426 5430 5434 5438 5442 5446 5449 5452 5455 5459 5462 5465 5468 5471 5473 5475 5476 5476 5477 5477 5476 5475 5472 5468 5464 5459 5454 5449 5442 5435 5427 5420 5412 5404 5394 5385 5375 5365 5355 5346 5338 5332
5387 5390 5393 5395 5398 5403 5407 5410 5414 5417 5421 5425 5429 5432 5436 5439 5443 5446 5450 5453 5456 5459 5462 5465 5468 5470 5471 5473 5474 5474 5474 5473 5472 5469 5465 5461 5457 5452 5446 5440 5433 5426 5418 5410 5402 5394 5384 5375 5365 5354 5344 5336 5329 5324
5393 5395 5398 5400 5403 5407 5410 5414 5418 5422 5426 5429 5433 5436 5439 5441 5445 5448 5451 5455 5458 5460 5463 5465 5467 5469 5470 5471 5471 5471 5470 5468 5466 5462 5458 5454 5449 5443 5437 5431 5423 5416 5408 5400 5392 5383 5374 5364 5354 5344 5334 5327 5321 5315
5396 5398 5402 5404 5408 5411 5414 5418 5421 5425 5429 5432 5435 5438 5440 5443 5446 5450 5452 5455 5458 5460 5462 5464 5465 5466 5467 5467 5467 5466 5465 5462 5459 5455 5451 5446 5441 5434 5428 5421 5414 5407 5399 5391 5383 5373 5364 5354 5344 5334 5326 5319 5313 5307
5399 5402 5405 5409 5413 5416 5420 5423 5426 5429 5431 5434 5437 5439 5442 5445 5447 5450 5452 5455 5457 5460 5461 5462 5463 5463 5464 5463 5462 5461 5458 5455 5452 5448 5443 5437 5432 5425 5419 5412 5405 5397 5389 5382 5373 5364 5354 5344 5334 5325 5318 5312 5306 5300
5403 5406 5409 5413 5416 5420 5423 5426 5428 5431 5433 5435 5437 5439 5442 5445 5448 5450 5452 5454 5456 5458 5458 5459 5459 5459 5459 5458 5456 5454 5451 5447 5443 5439 5434 5428 5422 5416 5409 5402 5395 5388 5380 5372 5364 5354 5345 5335 5325 5318 5311 5305 5300 5294
5406 5408 5411 5415 5418 5421 5425 5427 5429 5431 5433 5435 5437 5439 5442 5444 5447 5449 5451 5452 5453 5455 5455 5455 5455 5454 5453 5452 5449 5446 5443 5439 5435 5430 5424 5419 5413 5406 5399 5392 5386 5379 5371 5363 5354 5345 5336 5326 5318 5311 5304 5298 5293 5287
5407 5410 5413 5416 5419 5422 5425 5427 5429 5431 5432 5434 5437 5439 5441 5443 5445 5447 5449 5450 5450 5451 5451 5451 5450 5448 5446 5444 5441 5438 5434 5430 5426 5421 5415 5409 5403 5397 5390 5383 5377 5370 5362 5354 5345 5336 5326 5317 5310 5303 5297 5291 5285 5279
5408 5411 5414 5416 5419 5422 5424 5426 5428 5429 5431 5433 5435 5437 5439 5441 5443 5444 5445 5445 5445 5445 5445 5444 5443 5441 5439 5436 5433 5430 5426 5422 5417 5411 5405 5400 5394 5387 5381 5374 5368 5360 5352 5344 5335 5326 5317 5309 5302 5295 5289 5283 5277 5271
5408 5411 5414 5416 5419 5421 5422 5424 5426 5428 5430 5432 5433 5435 5436 5438 5439 5439 5439 5440 5440 5439 5438 5437 5435 5433 5431 5428 5425 5421 5417 5412 5407 5402 5396 5390 5384 5378 5372 5365 5358 5351 5343 5334 5325 5316 5308 5300 5293 5287 5280 5274 5268 5262
5408 5410 5413 5415 5416 5418 5420 5422 5424 5425 5427 5429 5430 5431 5432 5433 5434 5434 5434 5433 5433 5432 5431 5429 5428 5426 5423 5420 5416 5412 5407 5402 5397 5391 5386 5380 5374 5369 5362 5356 5349 5341 5333 5324 5315 5306 5299 5291 5285 5278 5272 5265 5259 5253